Miscellaneous Local Product
Issued by NWS Hastings, NE

Home | Current Version | Previous Version | Text Only | Print | Product List | Glossary On
Versions: 1 2 3 4 5 6 7 8 9 10 11 12 13 14 15 16 17 18 19 20 21 22 23 24 25 26 27 28 29 30 31 32 33 34 35 36 37 38 39 40 41 42 43 44 45 46 47 48 49 50
053
AXUS43 KGID 150202
MISGRI

GID CWA HOURLY WEATHER ROUNDUP
NATIONAL WEATHER SERVICE HASTINGS NE
800 PM CST THU DEC 14 2017

NOTE: "FAIR" INDICATES FEW OR NO CLOUDS BELOW 12,000 FEET WITH NO
SIGNIFICANT WEATHER AND/OR OBSTRUCTIONS TO VISIBILITY.

...SOUTH CENTRAL NEBRASKA...

CITY           SKY/WX    TMP DP  RH WIND       PRES   REMARKS
GRAND ISLAND   CLOUDY    34  33  96 N14       30.18R WCI  25
KEARNEY        MIX PCPN  34  30  85 N16       30.19R WCI  24
HASTINGS       CLOUDY    34  30  85 NW15      30.18R WCI  24
ORD            CLOUDY    33  30  88 NW13      30.17R WCI  24
YORK           CLOUDY    36  36 100 N10       30.15R WCI  28
AURORA         CLOUDY    35  32  90 NW15      30.16R WCI  25
LEXINGTON      PTCLDY    32  26  80 NW7       30.20S WCI  26
HOLDREGE       CLOUDY    34  29  82 N13       30.19S WCI  25
HEBRON         CLOUDY    37  35  90 N7        30.16R WCI  32

...NEBRASKA PANHANDLE...

CITY           SKY/WX    TMP DP  RH WIND       PRES   REMARKS
CHADRON        CLEAR     22  15  75 SW3       30.21F
ALLIANCE       CLEAR     18  14  84 W6        30.19F WCI  10
SCOTTSBLUFF    CLEAR     22  17  81 W7        30.22F WCI  13
SIDNEY         CLEAR     19  12  74 N9        30.21F WCI   8

...WESTERN AND NORTH CENTRAL NEBRASKA...

CITY           SKY/WX    TMP DP  RH WIND       PRES   REMARKS
VALENTINE      CLOUDY    32  27  81 NW7       30.19R WCI  26
AINSWORTH      CLOUDY    30  26  86 N9        30.18S WCI  22
ONEILL         MIX PCPN  32  31  98 N9        30.16S WCI  24
BROKEN BOW     CLOUDY    33  29  85 NW13      30.18S WCI  24
IMPERIAL       CLOUDY    33  23  66 NW12      30.23R WCI  24
NORTH PLATTE   CLOUDY    34  26  72 NW9       30.21R WCI  27
MCCOOK         CLOUDY    35  24  64 N10       30.22R WCI  27

...EASTERN NEBRASKA...

CITY           SKY/WX    TMP DP  RH WIND       PRES   REMARKS
NORFOLK        LGT SNOW  32  31  96 N15G22    30.12R FOG     WCI  22
SO SIOUX CITY  CLOUDY    36  28  73 NW13      30.12R WCI  27
TEKAMAH        CLOUDY    38  26  62 NW14      30.12R WCI  30
COLUMBUS       CLOUDY    36  32  85 NW13      30.16R WCI  27
ALBION         CLOUDY    34  31  89 N8        30.16R WCI  27
OMAHA EPPLEY   CLOUDY    36  25  64 NW5       30.12R WCI  32
OFFUTT AFB     CLOUDY    35  24  64 CALM      30.11R
MILLARD        CLOUDY    40  27  60 NW8       30.12R WCI  35
LINCOLN        CLOUDY    37  32  82 NW9       30.15R WCI  30
NEBRASKA CITY  CLOUDY    35  32  88 W8        30.12R WCI  29
BEATRICE       CLOUDY    35  34  96 NW6       30.14R WCI  30
FALLS CITY     MOCLDY    36  26  67 NW7       30.12R WCI  30

...NORTHERN KANSAS...

CITY           SKY/WX    TMP DP  RH WIND       PRES   REMARKS
GOODLAND       CLOUDY    30  21  69 NW12      30.22R WCI  20
HILL CITY      CLOUDY    36  25  64 NW8       30.22R WCI  30
NORTON         CLOUDY    36  21  55 NW15      30.20R WCI  26
PHILLIPSBURG   PTCLDY    30  23  74 W6        30.22R WCI  24
SMITH CENTER   CLOUDY    34  30  86 NW8       30.20R WCI  27
RUSSELL        PTCLDY    35  30  82 N14       30.18R WCI  26
CONCORDIA      CLOUDY    38  35  89 NW9       30.16R WCI  31
SALINA         CLOUDY    42  35  76 NW17      30.17R
TOPEKA         CLOUDY    42  32  67 NW10      30.12R



USA.gov is the U.S. government's official web portal to all federal, state and local government web resources and services.